Time,TemperatureF,DewpointF,PressureIn,WindDirection,WindDirectionDegrees,WindSpeedMPH,WindSpeedGustMPH,Humidity,HourlyPrecipIn,Conditions,Clouds,dailyrainin,SolarRadiationWatts/m^2,SoftwareType,DateUTC
2013-09-06 00:03:00,69.3,63.0,30.01,NNW,334,0.0,0.0,80,0.00,,,0.00,0,Custom,2013-09-06 05:03:00,
2013-09-06 00:08:00,68.9,63.0,30.01,NNW,334,0.0,0.0,81,0.00,,,0.00,0,Custom,2013-09-06 05:08:00,
2013-09-06 00:13:00,68.6,63.0,30.01,NNW,335,0.0,0.0,82,0.00,,,0.00,0,Custom,2013-09-06 05:13:00,
2013-09-06 00:18:00,68.3,63.0,30.01,NNW,335,0.0,0.0,82,0.00,,,0.00,0,Custom,2013-09-06 05:18:00,
2013-09-06 00:23:00,68.0,62.0,30.01,NNW,335,0.0,0.0,82,0.00,,,0.00,0,Custom,2013-09-06 05:23:00,
2013-09-06 00:28:00,67.7,62.0,30.01,NNW,335,0.0,0.0,83,0.00,,,0.00,0,Custom,2013-09-06 05:28:00,
2013-09-06 00:33:00,67.6,62.0,30.01,NNW,335,0.0,0.0,84,0.00,,,0.00,0,Custom,2013-09-06 05:33:00,
2013-09-06 00:38:00,67.4,62.0,30.01,NNW,335,0.0,0.0,84,0.00,,,0.00,0,Custom,2013-09-06 05:38:00,
2013-09-06 00:43:00,67.3,62.0,30.01,NNW,335,0.0,0.0,84,0.00,,,0.00,0,Custom,2013-09-06 05:43:00,
2013-09-06 00:48:00,67.2,62.0,30.01,NNW,335,0.0,0.0,84,0.00,,,0.00,0,Custom,2013-09-06 05:48:00,
2013-09-06 00:53:00,67.2,62.0,30.01,NNW,334,0.0,0.0,84,0.00,,,0.00,0,Custom,2013-09-06 05:53:00,
2013-09-06 00:58:00,67.1,62.0,30.01,NNW,335,0.0,0.0,84,0.00,,,0.00,0,Custom,2013-09-06 05:58:00,
2013-09-06 01:03:00,67.3,62.0,30.01,NNW,334,0.0,0.0,84,0.00,,,0.00,0,Custom,2013-09-06 06:03:00,
2013-09-06 01:08:00,67.8,62.0,30.01,NNW,334,0.0,0.0,83,0.00,,,0.00,0,Custom,2013-09-06 06:08:00,
2013-09-06 01:13:00,68.1,63.0,30.01,NNW,335,0.0,0.0,82,0.00,,,0.00,0,Custom,2013-09-06 06:13:00,
2013-09-06 01:18:00,68.1,62.0,30.01,NNW,334,0.0,0.0,82,0.00,,,0.00,0,Custom,2013-09-06 06:18:00,
2013-09-06 01:23:00,67.6,62.0,30.01,NNW,334,0.0,0.0,83,0.00,,,0.00,0,Custom,2013-09-06 06:23:00,
2013-09-06 01:28:00,67.5,62.0,30.01,NNW,335,0.0,0.0,83,0.00,,,0.00,0,Custom,2013-09-06 06:28:00,
2013-09-06 01:33:00,67.5,62.0,30.01,NNW,335,0.0,0.0,84,0.00,,,0.00,0,Custom,2013-09-06 06:33:00,
2013-09-06 01:38:00,67.3,62.0,30.01,NNW,335,0.0,0.0,83,0.00,,,0.00,0,Custom,2013-09-06 06:38:00,
2013-09-06 01:43:00,67.1,62.0,30.01,NNW,335,0.0,0.0,85,0.00,,,0.00,0,Custom,2013-09-06 06:43:00,
2013-09-06 01:48:00,66.9,62.0,30.01,NNW,335,0.0,0.0,85,0.00,,,0.00,0,Custom,2013-09-06 06:48:00,
2013-09-06 01:53:00,66.9,62.0,30.01,NNW,335,0.0,0.0,85,0.00,,,0.00,0,Custom,2013-09-06 06:53:00,
2013-09-06 01:58:00,66.8,62.0,30.01,NNW,335,0.0,0.0,85,0.00,,,0.00,0,Custom,2013-09-06 06:58:00,
2013-09-06 02:03:00,67.1,62.0,30.01,NNW,335,0.0,0.0,85,0.00,,,0.00,0,Custom,2013-09-06 07:03:00,
2013-09-06 02:08:00,67.1,62.0,30.00,NNW,335,0.0,0.0,85,0.00,,,0.00,0,Custom,2013-09-06 07:08:00,
2013-09-06 02:13:00,67.1,62.0,30.00,NNW,335,0.0,0.0,84,0.00,,,0.00,0,Custom,2013-09-06 07:13:00,
2013-09-06 02:18:00,67.1,62.0,30.00,NNW,335,0.0,0.0,85,0.00,,,0.00,0,Custom,2013-09-06 07:18:00,
2013-09-06 02:23:00,67.0,62.0,30.00,NNW,335,0.0,0.0,85,0.00,,,0.00,0,Custom,2013-09-06 07:23:00,
2013-09-06 02:28:00,66.9,62.0,30.00,NNW,335,0.0,0.0,85,0.00,,,0.00,0,Custom,2013-09-06 07:28:00,
2013-09-06 02:33:00,66.9,62.0,30.00,NNW,335,0.0,0.0,85,0.00,,,0.00,0,Custom,2013-09-06 07:33:00,
2013-09-06 02:38:00,66.5,62.0,30.00,NNW,335,0.0,0.0,85,0.00,,,0.00,0,Custom,2013-09-06 07:38:00,
2013-09-06 02:43:00,66.4,62.0,30.00,NW,323,0.0,0.0,85,0.00,,,0.00,0,Custom,2013-09-06 07:43:00,
2013-09-06 02:48:00,66.3,62.0,30.00,NW,322,0.0,0.0,85,0.00,,,0.00,0,Custom,2013-09-06 07:48:00,
2013-09-06 02:53:00,66.2,62.0,29.99,NW,322,0.0,0.0,86,0.00,,,0.00,0,Custom,2013-09-06 07:53:00,
2013-09-06 02:58:00,66.0,62.0,29.99,NW,322,0.0,0.0,87,0.00,,,0.00,0,Custom,2013-09-06 07:58:00,
2013-09-06 03:03:00,66.2,62.0,29.99,NW,322,0.0,0.0,87,0.00,,,0.00,0,Custom,2013-09-06 08:03:00,
2013-09-06 03:08:00,66.2,62.0,29.99,NW,322,0.0,0.0,86,0.00,,,0.00,0,Custom,2013-09-06 08:08:00,
2013-09-06 03:13:00,65.9,62.0,29.99,NW,322,0.0,0.0,87,0.00,,,0.00,0,Custom,2013-09-06 08:13:00,
2013-09-06 03:18:00,65.8,62.0,30.00,NW,322,0.0,0.0,87,0.00,,,0.00,0,Custom,2013-09-06 08:18:00,
2013-09-06 03:23:00,66.0,62.0,30.00,NW,322,0.0,0.0,87,0.00,,,0.00,0,Custom,2013-09-06 08:23:00,
2013-09-06 03:28:00,65.9,62.0,30.00,NW,322,0.0,0.0,87,0.00,,,0.00,0,Custom,2013-09-06 08:28:00,
2013-09-06 03:33:00,65.9,62.0,30.00,NW,322,0.0,0.0,86,0.00,,,0.00,0,Custom,2013-09-06 08:33:00,
2013-09-06 03:38:00,65.7,62.0,30.00,NW,322,0.0,0.0,87,0.00,,,0.00,0,Custom,2013-09-06 08:38:00,
2013-09-06 03:43:00,65.5,62.0,30.00,NW,322,0.0,0.0,87,0.00,,,0.00,0,Custom,2013-09-06 08:43:00,
2013-09-06 03:48:00,65.2,61.0,30.00,NW,322,0.0,0.0,87,0.00,,,0.00,0,Custom,2013-09-06 08:48:00,
2013-09-06 03:53:00,65.0,61.0,29.99,NW,322,0.0,0.0,88,0.00,,,0.00,0,Custom,2013-09-06 08:53:00,
2013-09-06 03:58:00,64.7,61.0,30.00,NW,322,0.0,0.0,88,0.00,,,0.00,0,Custom,2013-09-06 08:58:00,
2013-09-06 04:03:00,64.4,61.0,29.99,NW,322,0.0,0.0,89,0.00,,,0.00,0,Custom,2013-09-06 09:03:00,
2013-09-06 04:08:00,64.3,61.0,30.00,NW,323,0.0,0.0,90,0.00,,,0.00,0,Custom,2013-09-06 09:08:00,
2013-09-06 04:13:00,64.2,61.0,30.00,NW,323,0.0,0.0,90,0.00,,,0.00,0,Custom,2013-09-06 09:13:00,
2013-09-06 04:18:00,64.0,61.0,29.99,NW,323,0.0,0.0,90,0.00,,,0.00,0,Custom,2013-09-06 09:18:00,
2013-09-06 04:23:00,63.9,61.0,29.99,NW,323,0.0,0.0,90,0.00,,,0.00,0,Custom,2013-09-06 09:23:00,
2013-09-06 04:28:00,63.8,61.0,29.99,NW,323,0.0,0.0,91,0.00,,,0.00,0,Custom,2013-09-06 09:28:00,
2013-09-06 04:33:00,63.7,61.0,30.00,NW,322,0.0,0.0,90,0.00,,,0.00,0,Custom,2013-09-06 09:33:00,
2013-09-06 04:38:00,63.5,61.0,30.00,NW,323,0.0,0.0,91,0.00,,,0.00,0,Custom,2013-09-06 09:38:00,
2013-09-06 04:43:00,63.5,61.0,30.00,NW,323,0.0,0.0,91,0.00,,,0.00,0,Custom,2013-09-06 09:43:00,
2013-09-06 04:48:00,63.4,61.0,30.00,NW,323,0.0,0.0,91,0.00,,,0.00,0,Custom,2013-09-06 09:48:00,
2013-09-06 04:53:00,63.3,61.0,30.00,NW,323,0.0,0.0,91,0.00,,,0.00,0,Custom,2013-09-06 09:53:00,
2013-09-06 04:58:00,63.2,61.0,30.00,NW,323,0.0,0.0,92,0.00,,,0.00,0,Custom,2013-09-06 09:58:00,
2013-09-06 05:03:00,63.2,61.0,29.99,NW,322,0.0,0.0,92,0.00,,,0.00,0,Custom,2013-09-06 10:03:00,
2013-09-06 05:08:00,63.2,61.0,29.99,NW,322,0.0,0.0,92,0.00,,,0.00,0,Custom,2013-09-06 10:08:00,
2013-09-06 05:13:00,63.1,61.0,29.99,NW,322,0.0,0.0,92,0.00,,,0.00,0,Custom,2013-09-06 10:13:00,
2013-09-06 05:18:00,63.1,61.0,29.99,NW,322,0.0,0.0,92,0.00,,,0.00,0,Custom,2013-09-06 10:18:00,
2013-09-06 05:23:00,63.2,61.0,29.99,NW,322,0.0,0.0,92,0.00,,,0.00,0,Custom,2013-09-06 10:23:00,
2013-09-06 05:28:00,63.2,61.0,29.99,NW,322,0.0,0.0,92,0.00,,,0.00,0,Custom,2013-09-06 10:28:00,
2013-09-06 05:33:00,63.4,61.0,30.00,NW,322,0.0,0.0,92,0.00,,,0.00,0,Custom,2013-09-06 10:33:00,
2013-09-06 05:38:00,63.8,62.0,29.99,NW,322,0.0,0.0,93,0.00,,,0.00,0,Custom,2013-09-06 10:38:00,
2013-09-06 05:43:00,63.8,61.0,30.00,NW,322,0.0,0.0,92,0.00,,,0.00,0,Custom,2013-09-06 10:43:00,
2013-09-06 05:48:00,63.7,61.0,29.99,NW,321,0.0,0.0,92,0.00,,,0.00,0,Custom,2013-09-06 10:48:00,
2013-09-06 05:53:00,63.7,61.0,30.00,NW,321,0.0,0.0,92,0.00,,,0.00,0,Custom,2013-09-06 10:53:00,
2013-09-06 05:58:00,63.6,61.0,30.00,NW,321,0.0,0.0,91,0.00,,,0.00,0,Custom,2013-09-06 10:58:00,
2013-09-06 06:03:00,63.8,61.0,30.00,NW,321,0.0,0.0,92,0.00,,,0.00,0,Custom,2013-09-06 11:03:00,
2013-09-06 06:08:00,64.1,62.0,30.00,NW,321,0.0,0.0,92,0.00,,,0.00,0,Custom,2013-09-06 11:08:00,
2013-09-06 06:13:00,64.3,62.0,30.00,NW,321,0.0,0.0,92,0.00,,,0.00,0,Custom,2013-09-06 11:13:00,
2013-09-06 06:18:00,64.4,62.0,30.01,NW,321,0.0,0.0,91,0.00,,,0.00,0,Custom,2013-09-06 11:18:00,
2013-09-06 06:23:00,64.4,62.0,30.00,NW,319,0.0,0.0,91,0.00,,,0.00,0,Custom,2013-09-06 11:23:00,
2013-09-06 06:28:00,64.7,62.0,30.01,NW,317,0.0,0.0,91,0.00,,,0.00,0,Custom,2013-09-06 11:28:00,
2013-09-06 06:33:00,64.8,62.0,30.00,NW,314,0.0,0.0,90,0.00,,,0.00,0,Custom,2013-09-06 11:33:00,
2013-09-06 06:38:00,64.9,62.0,30.00,NW,313,0.0,0.0,90,0.00,,,0.00,0,Custom,2013-09-06 11:38:00,
2013-09-06 06:43:00,65.1,62.0,30.01,NW,314,0.0,0.0,90,0.00,,,0.00,0,Custom,2013-09-06 11:43:00,
2013-09-06 06:48:00,65.1,62.0,30.01,NW,313,0.0,0.0,90,0.00,,,0.00,0,Custom,2013-09-06 11:48:00,
2013-09-06 06:53:00,65.2,62.0,30.01,NW,313,0.0,0.0,89,0.00,,,0.00,0,Custom,2013-09-06 11:53:00,
2013-09-06 06:58:00,65.2,62.0,30.01,NW,314,0.0,0.0,89,0.00,,,0.00,0,Custom,2013-09-06 11:58:00,
2013-09-06 07:03:00,65.3,62.0,30.01,NW,318,0.0,0.0,88,0.00,,,0.00,0,Custom,2013-09-06 12:03:00,
2013-09-06 07:08:00,65.5,62.0,30.01,NW,318,0.0,0.0,89,0.00,,,0.00,14.43,Custom,2013-09-06 12:08:00,
2013-09-06 07:13:00,65.7,62.0,30.01,NW,318,0.0,0.0,89,0.00,,,0.00,24.57,Custom,2013-09-06 12:13:00,
2013-09-06 07:18:00,65.9,62.0,30.01,NW,317,0.0,0.0,89,0.00,,,0.00,30.81,Custom,2013-09-06 12:18:00,
2013-09-06 07:23:00,66.1,62.0,30.01,NW,317,0.0,0.0,88,0.00,,,0.00,32.37,Custom,2013-09-06 12:23:00,
2013-09-06 07:28:00,66.3,62.0,30.01,NW,317,0.0,0.0,87,0.00,,,0.00,30.81,Custom,2013-09-06 12:28:00,
2013-09-06 07:33:00,66.5,62.0,30.01,NW,316,0.0,0.0,87,0.00,,,0.00,27.69,Custom,2013-09-06 12:33:00,
2013-09-06 07:38:00,66.6,62.0,30.01,NW,316,0.0,0.0,87,0.00,,,0.00,28.47,Custom,2013-09-06 12:38:00,
2013-09-06 07:43:00,66.8,63.0,30.01,NW,316,0.0,0.0,87,0.00,,,0.00,28.86,Custom,2013-09-06 12:43:00,
2013-09-06 07:48:00,68.0,63.0,30.01,NW,316,0.0,0.0,85,0.00,,,0.00,38.22,Custom,2013-09-06 12:48:00,
2013-09-06 07:53:00,69.5,64.0,30.01,NW,316,0.0,0.0,81,0.00,,,0.00,46.8,Custom,2013-09-06 12:53:00,
2013-09-06 07:58:00,70.5,63.0,30.01,NW,322,0.0,0.0,77,0.00,,,0.00,55.77,Custom,2013-09-06 12:58:00,
2013-09-06 08:03:00,71.2,63.0,30.01,NNW,330,0.0,0.0,75,0.00,,,0.00,64.35,Custom,2013-09-06 13:03:00,
2013-09-06 08:08:00,71.7,63.0,30.01,NNW,330,0.0,0.0,73,0.00,,,0.00,96.72,Custom,2013-09-06 13:08:00,
2013-09-06 08:13:00,72.1,63.0,30.01,NW,313,0.0,0.0,73,0.00,,,0.00,122.07,Custom,2013-09-06 13:13:00,
2013-09-06 08:18:00,72.9,63.0,30.01,NW,312,0.0,0.0,71,0.00,,,0.00,145.08,Custom,2013-09-06 13:18:00,
2013-09-06 08:23:00,73.1,63.0,30.01,NW,311,0.0,0.0,70,0.00,,,0.00,165.36,Custom,2013-09-06 13:23:00,
2013-09-06 08:28:00,74.3,64.0,30.01,NW,311,0.0,0.0,69,0.00,,,0.00,191.49,Custom,2013-09-06 13:28:00,
2013-09-06 08:33:00,74.0,63.0,30.01,NW,310,0.0,0.0,68,0.00,,,0.00,226.59,Custom,2013-09-06 13:33:00,
2013-09-06 08:38:00,73.9,62.0,30.02,NW,318,0.0,0.0,67,0.00,,,0.00,191.1,Custom,2013-09-06 13:38:00,
2013-09-06 08:43:00,73.2,63.0,30.01,NW,316,0.0,0.0,70,0.00,,,0.00,123.63,Custom,2013-09-06 13:43:00,
2013-09-06 08:48:00,73.2,63.0,30.01,NW,316,0.0,0.0,71,0.00,,,0.00,193.83,Custom,2013-09-06 13:48:00,
2013-09-06 08:53:00,75.0,64.0,30.01,NW,316,0.0,0.0,69,0.00,,,0.00,295.62,Custom,2013-09-06 13:53:00,
2013-09-06 08:58:00,75.3,64.0,30.01,NW,315,0.0,0.0,67,0.00,,,0.00,333.06,Custom,2013-09-06 13:58:00,
2013-09-06 09:03:00,76.9,65.0,30.02,NNW,330,0.0,0.0,66,0.00,,,0.00,347.1,Custom,2013-09-06 14:03:00,
2013-09-06 09:08:00,77.8,64.0,30.02,NW,312,0.0,0.0,62,0.00,,,0.00,361.53,Custom,2013-09-06 14:08:00,
2013-09-06 09:13:00,77.2,64.0,30.01,NW,312,0.0,0.0,63,0.00,,,0.00,230.88,Custom,2013-09-06 14:13:00,
2013-09-06 09:18:00,78.3,65.0,30.01,NW,313,0.0,0.0,63,0.00,,,0.00,370.5,Custom,2013-09-06 14:18:00,
2013-09-06 09:23:00,79.3,65.0,30.02,NNW,329,0.0,0.0,62,0.00,,,0.00,390.39,Custom,2013-09-06 14:23:00,
2013-09-06 09:28:00,80.3,66.0,30.02,NNW,328,0.0,0.0,61,0.00,,,0.00,420.42,Custom,2013-09-06 14:28:00,
2013-09-06 09:33:00,80.3,65.0,30.02,NW,312,0.0,0.0,59,0.00,,,0.00,446.55,Custom,2013-09-06 14:33:00,
2013-09-06 09:38:00,81.1,65.0,30.02,NW,311,0.0,0.0,57,0.00,,,0.00,243.75,Custom,2013-09-06 14:38:00,
2013-09-06 09:43:00,79.5,64.0,30.02,NW,310,0.0,0.0,60,0.00,,,0.00,384.15,Custom,2013-09-06 14:43:00,
2013-09-06 09:48:00,79.6,66.0,30.02,NW,311,0.0,0.0,63,0.00,,,0.00,502.32,Custom,2013-09-06 14:48:00,
2013-09-06 09:53:00,80.4,65.0,30.02,NW,309,0.0,0.0,60,0.00,,,0.00,145.08,Custom,2013-09-06 14:53:00,
2013-09-06 09:58:00,79.8,65.0,30.02,NW,311,0.0,0.0,60,0.00,,,0.00,505.05,Custom,2013-09-06 14:58:00,
2013-09-06 10:03:00,81.7,66.0,30.02,NW,312,0.0,0.0,58,0.00,,,0.00,519.09,Custom,2013-09-06 15:03:00,
2013-09-06 10:08:00,83.2,66.0,30.02,NW,322,0.0,0.0,57,0.00,,,0.00,535.47,Custom,2013-09-06 15:08:00,
2013-09-06 10:13:00,82.9,66.0,30.02,NW,311,0.0,0.0,56,0.00,,,0.00,588.51,Custom,2013-09-06 15:13:00,
2013-09-06 10:18:00,84.4,66.0,30.02,NW,310,0.0,0.0,55,0.00,,,0.00,640.77,Custom,2013-09-06 15:18:00,
2013-09-06 10:23:00,83.6,65.0,30.02,NW,316,0.0,0.0,53,0.00,,,0.00,486.72,Custom,2013-09-06 15:23:00,
2013-09-06 10:28:00,83.9,66.0,30.02,NW,309,0.0,0.0,55,0.00,,,0.00,290.94,Custom,2013-09-06 15:28:00,
2013-09-06 10:33:00,83.6,67.0,30.01,NW,307,0.0,0.0,57,0.00,,,0.00,602.55,Custom,2013-09-06 15:33:00,
2013-09-06 10:38:00,83.3,66.0,30.02,NW,308,0.0,0.0,56,0.00,,,0.00,282.75,Custom,2013-09-06 15:38:00,
2013-09-06 10:43:00,83.3,67.0,30.02,NW,326,0.0,0.0,57,0.00,,,0.00,486.72,Custom,2013-09-06 15:43:00,
2013-09-06 10:48:00,84.8,67.0,30.02,NW,304,0.0,0.0,56,0.00,,,0.00,589.68,Custom,2013-09-06 15:48:00,
2013-09-06 10:53:00,85.7,66.0,30.02,NW,314,0.0,0.0,53,0.00,,,0.00,620.88,Custom,2013-09-06 15:53:00,
2013-09-06 10:58:00,86.3,67.0,30.02,NW,305,0.0,0.0,53,0.00,,,0.00,627.9,Custom,2013-09-06 15:58:00,
2013-09-06 11:03:00,87.1,67.0,30.02,WNW,300,0.0,0.0,51,0.00,,,0.00,629.85,Custom,2013-09-06 16:03:00,
2013-09-06 11:08:00,87.3,67.0,30.02,NW,326,0.0,0.0,50,0.00,,,0.00,601.77,Custom,2013-09-06 16:08:00,
2013-09-06 11:13:00,87.5,66.0,30.02,NW,323,0.0,0.0,50,0.00,,,0.00,589.68,Custom,2013-09-06 16:13:00,
2013-09-06 11:18:00,87.8,65.0,30.02,NW,309,0.0,0.0,48,0.00,,,0.00,616.2,Custom,2013-09-06 16:18:00,
2013-09-06 11:23:00,88.6,66.0,30.01,NW,315,0.0,0.0,47,0.00,,,0.00,575.25,Custom,2013-09-06 16:23:00,
2013-09-06 11:28:00,89.7,67.0,30.01,NW,309,0.0,0.0,47,0.00,,,0.00,590.46,Custom,2013-09-06 16:28:00,
2013-09-06 11:33:00,86.5,65.0,30.02,NW,307,0.0,0.0,48,0.00,,,0.00,308.1,Custom,2013-09-06 16:33:00,
2013-09-06 11:38:00,86.1,66.0,30.01,WNW,299,0.0,0.0,52,0.00,,,0.00,547.17,Custom,2013-09-06 16:38:00,
2013-09-06 11:43:00,87.4,68.0,30.01,WNW,300,0.0,0.0,52,0.00,,,0.00,597.48,Custom,2013-09-06 16:43:00,
2013-09-06 11:48:00,88.4,67.0,30.01,WNW,294,0.0,0.0,49,0.00,,,0.00,619.32,Custom,2013-09-06 16:48:00,
2013-09-06 11:53:00,87.9,65.0,30.01,NW,306,0.0,0.0,48,0.00,,,0.00,590.46,Custom,2013-09-06 16:53:00,
2013-09-06 11:58:00,89.4,66.0,30.01,WNW,300,0.0,0.0,47,0.00,,,0.00,635.7,Custom,2013-09-06 16:58:00,
2013-09-06 12:03:00,88.8,67.0,30.01,WNW,299,0.0,0.0,49,0.00,,,0.00,641.94,Custom,2013-09-06 17:03:00,
2013-09-06 12:08:00,89.1,67.0,30.01,WNW,302,0.0,0.0,48,0.00,,,0.00,638.82,Custom,2013-09-06 17:08:00,
2013-09-06 12:13:00,89.0,66.0,30.01,NW,307,0.0,0.0,47,0.00,,,0.00,638.04,Custom,2013-09-06 17:13:00,
2013-09-06 12:18:00,89.1,66.0,30.01,NW,304,0.0,0.0,47,0.00,,,0.00,622.05,Custom,2013-09-06 17:18:00,
2013-09-06 12:23:00,89.3,68.0,30.01,NW,323,0.0,0.0,49,0.00,,,0.00,633.36,Custom,2013-09-06 17:23:00,
2013-09-06 12:28:00,89.4,67.0,30.01,WNW,287,0.0,0.0,47,0.00,,,0.00,638.43,Custom,2013-09-06 17:28:00,
2013-09-06 12:33:00,90.5,69.0,30.01,NW,306,0.0,0.0,49,0.00,,,0.00,638.43,Custom,2013-09-06 17:33:00,
2013-09-06 12:38:00,89.8,66.0,30.01,WNW,300,0.0,0.0,46,0.00,,,0.00,638.82,Custom,2013-09-06 17:38:00,
2013-09-06 12:43:00,89.5,66.0,30.00,WNW,289,0.0,0.0,47,0.00,,,0.00,635.7,Custom,2013-09-06 17:43:00,
2013-09-06 12:48:00,89.9,67.0,30.00,NW,310,0.0,0.0,47,0.00,,,0.00,629.85,Custom,2013-09-06 17:48:00,
2013-09-06 12:53:00,90.4,67.0,29.99,NW,304,0.0,0.0,47,0.00,,,0.00,631.8,Custom,2013-09-06 17:53:00,
2013-09-06 12:58:00,90.9,66.0,29.99,WNW,301,0.0,0.0,44,0.00,,,0.00,638.43,Custom,2013-09-06 17:58:00,
2013-09-06 13:03:00,90.2,67.0,29.99,WNW,300,0.0,0.0,47,0.00,,,0.00,641.16,Custom,2013-09-06 18:03:00,
2013-09-06 13:08:00,91.2,68.0,29.98,WNW,302,0.0,0.0,47,0.00,,,0.00,641.94,Custom,2013-09-06 18:08:00,
2013-09-06 13:13:00,91.0,67.0,29.98,WNW,286,0.0,0.0,46,0.00,,,0.00,643.5,Custom,2013-09-06 18:13:00,
2013-09-06 13:18:00,91.2,67.0,29.98,NW,306,0.0,0.0,45,0.00,,,0.00,643.5,Custom,2013-09-06 18:18:00,
2013-09-06 13:23:00,91.3,67.0,29.98,NW,307,0.0,0.0,45,0.00,,,0.00,643.5,Custom,2013-09-06 18:23:00,
2013-09-06 13:28:00,91.0,66.0,29.98,NW,316,0.0,0.0,44,0.00,,,0.00,643.5,Custom,2013-09-06 18:28:00,
2013-09-06 13:33:00,91.6,68.0,29.98,NW,320,0.0,0.0,47,0.00,,,0.00,643.11,Custom,2013-09-06 18:33:00,
2013-09-06 13:38:00,92.1,69.0,29.98,NW,305,0.0,0.0,46,0.00,,,0.00,642.72,Custom,2013-09-06 18:38:00,
2013-09-06 13:43:00,91.7,66.0,29.98,WNW,302,0.0,0.0,43,0.00,,,0.00,641.16,Custom,2013-09-06 18:43:00,
2013-09-06 13:48:00,92.3,67.0,29.98,NW,314,0.0,0.0,44,0.00,,,0.00,640.38,Custom,2013-09-06 18:48:00,
2013-09-06 13:53:00,92.8,68.0,29.98,NW,315,0.0,0.0,44,0.00,,,0.00,639.21,Custom,2013-09-06 18:53:00,
2013-09-06 13:58:00,92.9,67.0,29.97,NW,325,0.0,0.0,43,0.00,,,0.00,637.65,Custom,2013-09-06 18:58:00,
2013-09-06 14:03:00,92.6,66.0,29.97,NW,315,0.0,0.0,42,0.00,,,0.00,634.14,Custom,2013-09-06 19:03:00,
2013-09-06 14:08:00,92.9,67.0,29.96,NW,322,0.0,0.0,43,0.00,,,0.00,620.88,Custom,2013-09-06 19:08:00,
2013-09-06 14:13:00,92.8,67.0,29.96,NW,308,0.0,0.0,43,0.00,,,0.00,663,Custom,2013-09-06 19:13:00,
2013-09-06 14:18:00,92.8,68.0,29.96,NNW,327,0.0,0.0,44,0.00,,,0.00,662.61,Custom,2013-09-06 19:18:00,
2013-09-06 14:23:00,93.2,68.0,29.96,NW,313,0.0,0.0,44,0.00,,,0.00,642.33,Custom,2013-09-06 19:23:00,
2013-09-06 14:28:00,93.1,66.0,29.96,NW,313,0.0,0.0,41,0.00,,,0.00,654.03,Custom,2013-09-06 19:28:00,
2013-09-06 14:33:00,93.1,69.0,29.96,NW,319,0.0,0.0,46,0.00,,,0.00,655.2,Custom,2013-09-06 19:33:00,
2013-09-06 14:38:00,92.9,66.0,29.96,NNW,332,0.0,0.0,42,0.00,,,0.00,649.35,Custom,2013-09-06 19:38:00,
2013-09-06 14:43:00,93.1,68.0,29.96,NW,311,0.0,0.0,44,0.00,,,0.00,636.48,Custom,2013-09-06 19:43:00,
2013-09-06 14:48:00,93.0,67.0,29.95,WNW,293,0.0,0.0,43,0.00,,,0.00,626.34,Custom,2013-09-06 19:48:00,
2013-09-06 14:53:00,93.4,67.0,29.95,NW,325,0.0,0.0,43,0.00,,,0.00,637.65,Custom,2013-09-06 19:53:00,
2013-09-06 14:58:00,93.9,67.0,29.95,NNW,328,0.0,0.0,42,0.00,,,0.00,641.16,Custom,2013-09-06 19:58:00,
2013-09-06 15:03:00,92.6,66.0,29.95,NW,312,0.0,0.0,42,0.00,,,0.00,643.5,Custom,2013-09-06 20:03:00,
2013-09-06 15:08:00,92.4,66.0,29.95,NW,319,0.0,0.0,43,0.00,,,0.00,645.84,Custom,2013-09-06 20:08:00,
2013-09-06 15:13:00,93.6,67.0,29.94,NW,310,0.0,0.0,42,0.00,,,0.00,650.13,Custom,2013-09-06 20:13:00,
2013-09-06 15:18:00,93.8,67.0,29.93,NW,311,0.0,0.0,42,0.00,,,0.00,651.3,Custom,2013-09-06 20:18:00,
2013-09-06 15:23:00,93.8,67.0,29.93,WNW,302,0.0,0.0,42,0.00,,,0.00,647.4,Custom,2013-09-06 20:23:00,
2013-09-06 15:28:00,92.6,66.0,29.93,NW,310,0.0,0.0,41,0.00,,,0.00,620.49,Custom,2013-09-06 20:28:00,
2013-09-06 15:33:00,94.0,67.0,29.93,NW,326,0.0,0.0,42,0.00,,,0.00,621.66,Custom,2013-09-06 20:33:00,
2013-09-06 15:38:00,92.9,67.0,29.93,WNW,283,0.0,0.0,43,0.00,,,0.00,608.01,Custom,2013-09-06 20:38:00,
2013-09-06 15:43:00,92.7,66.0,29.93,NW,308,0.0,0.0,42,0.00,,,0.00,604.11,Custom,2013-09-06 20:43:00,
2013-09-06 15:48:00,93.5,66.0,29.93,NNW,327,0.0,0.0,41,0.00,,,0.00,588.51,Custom,2013-09-06 20:48:00,
2013-09-06 15:53:00,92.8,66.0,29.92,NW,308,0.0,0.0,42,0.00,,,0.00,574.47,Custom,2013-09-06 20:53:00,
2013-09-06 15:58:00,93.2,67.0,29.92,NW,315,0.0,0.0,42,0.00,,,0.00,563.16,Custom,2013-09-06 20:58:00,
2013-09-06 16:03:00,92.9,68.0,29.92,NW,310,0.0,0.0,44,0.00,,,0.00,547.56,Custom,2013-09-06 21:03:00,
2013-09-06 16:08:00,92.8,67.0,29.92,NW,308,0.0,0.0,43,0.00,,,0.00,537.81,Custom,2013-09-06 21:08:00,
2013-09-06 16:13:00,92.8,67.0,29.92,NW,304,0.0,0.0,43,0.00,,,0.00,518.31,Custom,2013-09-06 21:13:00,
2013-09-06 16:18:00,93.8,68.0,29.92,NW,306,0.0,0.0,43,0.00,,,0.00,502.71,Custom,2013-09-06 21:18:00,
2013-09-06 16:23:00,93.4,67.0,29.91,West,272,0.0,0.0,43,0.00,,,0.00,491.79,Custom,2013-09-06 21:23:00,
2013-09-06 16:28:00,93.7,67.0,29.91,NW,315,0.0,0.0,42,0.00,,,0.00,476.58,Custom,2013-09-06 21:28:00,
2013-09-06 16:33:00,92.6,66.0,29.91,NW,311,0.0,0.0,42,0.00,,,0.00,459.42,Custom,2013-09-06 21:33:00,
2013-09-06 16:38:00,92.6,67.0,29.91,NW,304,0.0,0.0,44,0.00,,,0.00,451.23,Custom,2013-09-06 21:38:00,
2013-09-06 16:43:00,92.3,67.0,29.91,West,277,0.0,0.0,43,0.00,,,0.00,424.32,Custom,2013-09-06 21:43:00,
2013-09-06 16:48:00,91.8,67.0,29.91,WNW,287,0.0,0.0,45,0.00,,,0.00,412.62,Custom,2013-09-06 21:48:00,
2013-09-06 16:53:00,91.1,66.0,29.91,WNW,291,0.0,0.0,44,0.00,,,0.00,391.17,Custom,2013-09-06 21:53:00,
2013-09-06 16:58:00,91.2,67.0,29.91,WNW,283,0.0,0.0,45,0.00,,,0.00,185.25,Custom,2013-09-06 21:58:00,
2013-09-06 17:03:00,90.5,66.0,29.91,WNW,288,0.0,0.0,45,0.00,,,0.00,77.61,Custom,2013-09-06 22:03:00,
2013-09-06 17:08:00,90.4,67.0,29.91,WNW,286,0.0,0.0,46,0.00,,,0.00,99.06,Custom,2013-09-06 22:08:00,
2013-09-06 17:13:00,89.6,66.0,29.91,NW,311,0.0,0.0,46,0.00,,,0.00,133.38,Custom,2013-09-06 22:13:00,
2013-09-06 17:18:00,89.1,67.0,29.91,NW,311,0.0,0.0,48,0.00,,,0.00,45.63,Custom,2013-09-06 22:18:00,
2013-09-06 17:23:00,88.5,67.0,29.91,NW,325,0.0,0.0,49,0.00,,,0.00,62.79,Custom,2013-09-06 22:23:00,
2013-09-06 17:28:00,88.2,67.0,29.91,NW,316,0.0,0.0,49,0.00,,,0.00,40.56,Custom,2013-09-06 22:28:00,
2013-09-06 17:33:00,88.1,67.0,29.91,NW,309,0.0,0.0,49,0.00,,,0.00,74.88,Custom,2013-09-06 22:33:00,
2013-09-06 17:38:00,87.8,67.0,29.91,NW,317,0.0,0.0,50,0.00,,,0.00,38.61,Custom,2013-09-06 22:38:00,
2013-09-06 17:43:00,87.3,66.0,29.91,NW,319,0.0,0.0,50,0.00,,,0.00,36.27,Custom,2013-09-06 22:43:00,
2013-09-06 17:48:00,87.1,67.0,29.90,NW,313,0.0,0.0,51,0.00,,,0.00,35.1,Custom,2013-09-06 22:48:00,
2013-09-06 17:53:00,87.1,66.0,29.90,NNW,331,0.0,0.0,50,0.00,,,0.00,34.32,Custom,2013-09-06 22:53:00,
2013-09-06 17:59:00,86.5,66.0,29.90,NW,320,0.0,0.0,51,0.00,,,0.00,32.37,Custom,2013-09-06 22:59:00,
2013-09-06 18:04:00,86.3,66.0,29.90,NW,323,0.0,0.0,51,0.00,,,0.00,31.98,Custom,2013-09-06 23:04:00,
2013-09-06 18:09:00,86.2,66.0,29.90,NW,314,0.0,0.0,52,0.00,,,0.00,30.03,Custom,2013-09-06 23:09:00,
2013-09-06 18:14:00,86.1,67.0,29.90,NW,308,0.0,0.0,53,0.00,,,0.00,28.86,Custom,2013-09-06 23:14:00,
2013-09-06 18:19:00,85.8,67.0,29.89,NW,318,0.0,0.0,53,0.00,,,0.00,28.08,Custom,2013-09-06 23:19:00,
2013-09-06 18:24:00,85.6,66.0,29.89,NW,326,0.0,0.0,52,0.00,,,0.00,28.47,Custom,2013-09-06 23:24:00,
2013-09-06 18:29:00,85.5,67.0,29.89,NW,322,0.0,0.0,54,0.00,,,0.00,25.74,Custom,2013-09-06 23:29:00,
2013-09-06 18:34:00,85.1,67.0,29.89,NW,325,0.0,0.0,54,0.00,,,0.00,25.35,Custom,2013-09-06 23:34:00,
2013-09-06 18:39:00,84.8,66.0,29.89,NW,321,0.0,0.0,54,0.00,,,0.00,23.4,Custom,2013-09-06 23:39:00,
2013-09-06 18:44:00,84.5,67.0,29.89,NW,326,0.0,0.0,55,0.00,,,0.00,21.45,Custom,2013-09-06 23:44:00,
2013-09-06 18:49:00,84.3,67.0,29.89,NNW,328,0.0,0.0,56,0.00,,,0.00,20.28,Custom,2013-09-06 23:49:00,
2013-09-06 18:54:00,84.1,67.0,29.88,NNW,331,0.0,0.0,56,0.00,,,0.00,19.11,Custom,2013-09-06 23:54:00,
2013-09-06 18:59:00,83.7,67.0,29.89,NNW,343,0.0,0.0,57,0.00,,,0.00,17.16,Custom,2013-09-06 23:59:00,
2013-09-06 19:04:00,83.4,66.0,29.89,NNW,329,0.0,0.0,56,0.00,,,0.00,15.6,Custom,2013-09-07 00:04:00,
2013-09-06 19:09:00,83.0,66.0,29.88,NNW,332,0.0,0.0,57,0.00,,,0.00,13.65,Custom,2013-09-07 00:09:00,
2013-09-06 19:14:00,82.6,66.0,29.88,NW,320,0.0,0.0,57,0.00,,,0.00,11.31,Custom,2013-09-07 00:14:00,
2013-09-06 19:19:00,81.9,67.0,29.88,NNW,333,0.0,0.0,60,0.00,,,0.00,10.14,Custom,2013-09-07 00:19:00,
2013-09-06 19:24:00,81.8,67.0,29.88,NNW,341,0.0,0.0,60,0.00,,,0.00,8.19,Custom,2013-09-07 00:24:00,
2013-09-06 19:29:00,81.6,67.0,29.88,NW,310,0.0,0.0,60,0.00,,,0.00,0,Custom,2013-09-07 00:29:00,
2013-09-06 19:34:00,81.2,66.0,29.88,NW,305,0.0,0.0,61,0.00,,,0.00,0,Custom,2013-09-07 00:34:00,
2013-09-06 19:39:00,80.7,66.0,29.88,NNW,330,0.0,0.0,61,0.00,,,0.00,0,Custom,2013-09-07 00:39:00,
2013-09-06 19:44:00,80.3,66.0,29.88,NNW,329,0.0,0.0,62,0.00,,,0.00,0,Custom,2013-09-07 00:44:00,
2013-09-06 19:49:00,80.0,66.0,29.88,WNW,301,0.0,0.0,63,0.00,,,0.00,0,Custom,2013-09-07 00:49:00,
2013-09-06 19:54:00,79.6,67.0,29.88,NNW,333,0.0,0.0,64,0.00,,,0.00,0,Custom,2013-09-07 00:54:00,
2013-09-06 19:59:00,79.2,66.0,29.88,NW,323,0.0,0.0,65,0.00,,,0.00,0,Custom,2013-09-07 00:59:00,
2013-09-06 20:04:00,78.9,67.0,29.88,NNW,327,0.0,0.0,66,0.00,,,0.00,0,Custom,2013-09-07 01:04:00,
2013-09-06 20:09:00,78.8,67.0,29.88,NNW,328,0.0,0.0,66,0.00,,,0.00,0,Custom,2013-09-07 01:09:00,
2013-09-06 20:14:00,78.4,67.0,29.88,NNW,330,0.0,0.0,67,0.00,,,0.00,0,Custom,2013-09-07 01:14:00,
2013-09-06 20:19:00,78.1,66.0,29.88,NNW,345,0.0,0.0,67,0.00,,,0.00,0,Custom,2013-09-07 01:19:00,
2013-09-06 20:24:00,78.1,67.0,29.88,NNW,330,0.0,0.0,68,0.00,,,0.00,0,Custom,2013-09-07 01:24:00,
2013-09-06 20:29:00,77.8,66.0,29.88,NNW,330,0.0,0.0,68,0.00,,,0.00,0,Custom,2013-09-07 01:29:00,
2013-09-06 20:34:00,77.5,66.0,29.88,NNW,339,0.0,0.0,68,0.00,,,0.00,0,Custom,2013-09-07 01:34:00,
2013-09-06 20:39:00,77.2,66.0,29.88,NNW,348,0.0,0.0,69,0.00,,,0.00,0,Custom,2013-09-07 01:39:00,
2013-09-06 20:44:00,76.9,66.0,29.88,NNW,342,0.0,0.0,69,0.00,,,0.00,0,Custom,2013-09-07 01:44:00,
2013-09-06 20:49:00,76.7,66.0,29.88,NNW,345,0.0,0.0,70,0.00,,,0.00,0,Custom,2013-09-07 01:49:00,
2013-09-06 20:54:00,76.7,66.0,29.89,NNW,344,0.0,0.0,71,0.00,,,0.00,0,Custom,2013-09-07 01:54:00,
2013-09-06 20:59:00,76.4,66.0,29.88,NW,313,0.0,0.0,71,0.00,,,0.00,0,Custom,2013-09-07 01:59:00,
2013-09-06 21:04:00,76.2,66.0,29.88,NNW,331,0.0,0.0,71,0.00,,,0.00,0,Custom,2013-09-07 02:04:00,
2013-09-06 21:09:00,75.9,66.0,29.88,NNW,330,0.0,0.0,72,0.00,,,0.00,0,Custom,2013-09-07 02:09:00,
2013-09-06 21:14:00,75.7,66.0,29.88,NW,314,0.0,0.0,72,0.00,,,0.00,0,Custom,2013-09-07 02:14:00,
2013-09-06 21:19:00,75.9,66.0,29.89,NNW,336,0.0,0.0,72,0.00,,,0.00,0,Custom,2013-09-07 02:19:00,
2013-09-06 21:24:00,75.7,66.0,29.88,NNW,347,0.0,0.0,72,0.00,,,0.00,0,Custom,2013-09-07 02:24:00,
2013-09-06 21:29:00,75.7,66.0,29.88,NW,307,0.0,0.0,72,0.00,,,0.00,0,Custom,2013-09-07 02:29:00,
2013-09-06 21:34:00,75.4,66.0,29.88,NW,306,0.0,0.0,72,0.00,,,0.00,0,Custom,2013-09-07 02:34:00,
2013-09-06 21:39:00,75.2,66.0,29.89,NW,307,0.0,0.0,73,0.00,,,0.00,0,Custom,2013-09-07 02:39:00,
2013-09-06 21:44:00,74.9,66.0,29.89,NW,307,0.0,0.0,73,0.00,,,0.00,0,Custom,2013-09-07 02:44:00,
2013-09-06 21:49:00,74.8,66.0,29.89,NW,309,0.0,0.0,73,0.00,,,0.00,0,Custom,2013-09-07 02:49:00,
2013-09-06 21:54:00,74.8,66.0,29.88,NW,306,0.0,0.0,73,0.00,,,0.00,0,Custom,2013-09-07 02:54:00,
2013-09-06 21:59:00,74.8,66.0,29.88,NW,305,0.0,0.0,73,0.00,,,0.00,0,Custom,2013-09-07 02:59:00,
2013-09-06 22:04:00,74.7,66.0,29.88,NW,304,0.0,0.0,73,0.00,,,0.00,0,Custom,2013-09-07 03:04:00,
2013-09-06 22:09:00,74.7,65.0,29.88,NW,305,0.0,0.0,73,0.00,,,0.00,0,Custom,2013-09-07 03:09:00,
2013-09-06 22:14:00,74.7,65.0,29.88,NW,307,0.0,0.0,73,0.00,,,0.00,0,Custom,2013-09-07 03:14:00,
2013-09-06 22:19:00,74.5,65.0,29.88,NW,306,0.0,0.0,73,0.00,,,0.00,0,Custom,2013-09-07 03:19:00,
2013-09-06 22:24:00,74.8,65.0,29.88,NW,325,0.0,0.0,73,0.00,,,0.00,0,Custom,2013-09-07 03:24:00,
2013-09-06 22:29:00,74.8,65.0,29.88,NW,305,0.0,0.0,72,0.00,,,0.00,0,Custom,2013-09-07 03:29:00,
2013-09-06 22:34:00,74.9,65.0,29.88,NW,305,0.0,0.0,72,0.00,,,0.00,0,Custom,2013-09-07 03:34:00,
2013-09-06 22:39:00,74.9,65.0,29.88,NW,308,0.0,0.0,72,0.00,,,0.00,0,Custom,2013-09-07 03:39:00,
2013-09-06 22:44:00,74.8,65.0,29.88,NW,308,0.0,0.0,71,0.00,,,0.00,0,Custom,2013-09-07 03:44:00,
2013-09-06 22:49:00,74.8,65.0,29.88,NW,308,0.0,0.0,72,0.00,,,0.00,0,Custom,2013-09-07 03:49:00,
2013-09-06 22:54:00,74.5,65.0,29.88,NW,311,0.0,0.0,72,0.00,,,0.00,0,Custom,2013-09-07 03:54:00,
2013-09-06 22:59:00,74.3,65.0,29.88,NW,315,0.0,0.0,72,0.00,,,0.00,0,Custom,2013-09-07 03:59:00,
2013-09-06 23:01:00,74.3,65.0,29.88,NW,306,0.0,0.0,72,0.00,,,0.00,0,Custom,2013-09-07 04:01:00,
2013-09-06 23:02:00,74.3,65.0,29.88,NW,306,0.0,0.0,72,0.00,,,0.00,0,Custom,2013-09-07 04:02:00,
2013-09-06 23:03:00,74.3,65.0,29.88,NW,306,0.0,0.0,72,0.00,,,0.00,0,Custom,2013-09-07 04:03:00,
2013-09-06 23:07:00,74.3,65.0,29.88,NW,306,0.0,0.0,73,0.00,,,0.00,0,Custom,2013-09-07 04:07:00,
2013-09-06 23:12:00,74.0,65.0,29.88,NW,307,0.0,0.0,73,0.00,,,0.00,0,Custom,2013-09-07 04:12:00,
2013-09-06 23:17:00,73.6,65.0,29.88,NW,318,0.0,0.0,74,0.00,,,0.00,0,Custom,2013-09-07 04:17:00,
2013-09-06 23:22:00,73.4,64.0,29.88,WNW,302,0.0,0.0,73,0.00,,,0.00,0,Custom,2013-09-07 04:22:00,
2013-09-06 23:27:00,73.5,65.0,29.88,WNW,303,0.0,0.0,74,0.00,,,0.00,0,Custom,2013-09-07 04:27:00,
2013-09-06 23:32:00,73.3,64.0,29.88,WNW,303,0.0,0.0,74,0.00,,,0.00,0,Custom,2013-09-07 04:32:00,
2013-09-06 23:37:00,73.0,65.0,29.88,WNW,303,0.0,0.0,75,0.00,,,0.00,0,Custom,2013-09-07 04:37:00,
2013-09-06 23:42:00,72.9,64.0,29.88,NNW,336,0.0,0.0,75,0.00,,,0.00,0,Custom,2013-09-07 04:42:00,
2013-09-06 23:47:00,72.8,64.0,29.88,NW,310,0.0,0.0,75,0.00,,,0.00,0,Custom,2013-09-07 04:47:00,
2013-09-06 23:52:00,72.5,64.0,29.88,NW,310,0.0,0.0,76,0.00,,,0.00,0,Custom,2013-09-07 04:52:00,
2013-09-06 23:57:00,72.4,64.0,29.87,NW,310,0.0,0.0,76,0.00,,,0.00,0,Custom,2013-09-07 04:57:00,